Location: Lynndyl
(39.5182°N, 112.3738°W)
Time: 07:10:04
(UTC+00:00)

Envisat - Visible Passes

Search period start: 06 July 2022 00:00
Search period end: 16 July 2022 00:00
Orbit: 764 x 765 km, 98.2° (Epoch: 05 July)

Date Brightness Start Highest point End Pass type
(mag) Time Alt. Az. Time Alt. Az. Time Alt. Az.
06 Jul 5.2 11:04:29 10° NE 11:08:30 23° E 11:12:29 10° SE visible
08 Jul 4.3 11:29:01 10° NNE 11:33:48 40° E 11:38:33 10° SSE visible
09 Jul 5.5 10:53:11 10° NE 10:56:36 18° E 11:00:00 10° SE visible
11 Jul 4.8 11:17:26 10° NE 11:21:57 31° E 11:26:26 10° SSE visible
12 Jul 5.7 10:42:09 10° ENE 10:44:42 14° E 10:47:13 10° ESE visible
13 Jul 3.8 11:42:12 10° NNE 11:47:12 56° E 11:52:10 10° S visible
14 Jul 5.1 11:05:58 10° NE 11:10:05 24° E 11:14:11 10° SSE visible
15 Jul 6.0 10:32:15 10° E 10:32:46 10° E 10:33:16 10° E visible
